sat.trackr.live / text

‹ back to catalog

HAWK-14C

NORAD 68441 · 2026-067AB

PAYLOAD ACTIVE UNKNOWN

§ Identity

Operator
Country
US
Launch date
2026-03-30
Launch site
AFWTR
Launch vehicle
Mass (kg)
RCS (m²)

External: N2YO · Heavens-Above · Gunter

§ Orbital elements

Epoch: 2026-09-19T07:29:13.829568Z

Period
94.81 min
Inclination
97.4588°
Eccentricity
0.0004548
Mean motion
15.18874570 rev/d
Perigee alt
506.1 km
Apogee alt
512.4 km
Semi-major
6,887.4 km
B*
1.4671e-4
RAAN
219.3255°
Arg perigee
100.8895°
Mean anomaly
259.2851°
Rev number
2,622

§ Raw data

HAWK-14C1 68441U 26067AB  26262.31196562  .00002991  00000+0  14671-3 0  99972 68441  97.4588 219.3255 0004548 100.8895 259.2851 15.18874570 26225

JSON: /api/v1/satellites/68441 · /tle

For live sub-satellite position, see the globe view (requires WebGL).

§ Visibility from observer

Set your observer location to see the next 7 days of passes ≥ 10°. The values pass through the URL so the page stays shareable.

No JS? Fill the form by hand. The geolocation button needs JavaScript.